Moultrie, GA

5:26 AM EDT on May 25, 2018 (GMT -0400)
Moultrie Municipal

Weather History for KMGR - October, 2012

Change the Weather History Date:

Sunday, October 28, 2012

  Actual Average (KMUL) Record (KMUL)
Temperature  
Mean Temperature 58 °F -  
Max Temperature 62 °F 76 °F 92 °F (1954)
Min Temperature 53 °F 51 °F 33 °F (1957)
Degree Days  
Heating Degree Days 8    
Growing Degree Days 8 (Base 50)    
Moisture  
Dew Point 50 °F    
Average Humidity 75    
Maximum Humidity 94    
Minimum Humidity 59    
Precipitation  
Precipitation 0.00 in - - ()
Sea Level Pressure  
Sea Level Pressure 29.80 in    
Wind  
Wind Speed 10 mph (NW)    
Max Wind Speed 16 mph    
Max Gust Speed 26 mph    
Visibility 10 miles    
Events      
Averages and records for this station are not official NWS values.
T = Trace of Precipitation, MM = Missing Value Source: NWS Daily Summary

Daily Weather History Graph

Daily Weather History Graph

Search for Another Location

Airport or City:

Astronomy

Oct. 28, 2012 Rise Set
Actual Time 7:47 AM EDT 6:49 PM EDT
Civil Twilight 7:22 AM EDT 7:14 PM EDT
Nautical Twilight 6:54 AM EDT 7:42 PM EDT
Astronomical Twilight 6:26 AM EDT 8:11 PM EDT
Moon 6:06 PM EDT (10/28) 6:41 AM EDT (10/28)
Length of Visible Light 11h 51m
Length of Day
11h 01m
Waxing Gibbous, 99% of the Moon is Illuminated
Oct 28
Waxing Gibbous
Oct 29
Full
Nov 6
Last Quarter
Nov 13
New
Nov 20
First Quarter

Hourly Weather History & Observations

Time (EDT) Temp. Dew Point Humidity Pressure Visibility Wind Dir Wind Speed Gust Speed Precip Events Conditions
12:15 AM 60.8 °F 53.6 °F 77% 29.80 in 10.0 mi NW 11.5 mph 17.3 mph N/A   Clear
12:55 AM 60.8 °F 53.6 °F 77% 29.79 in 10.0 mi NW 12.7 mph 19.6 mph N/A   Clear
1:15 AM 60.8 °F 53.6 °F 77% 29.79 in 10.0 mi NW 6.9 mph - N/A   Clear
1:55 AM 59.0 °F 53.6 °F 82% 29.79 in 10.0 mi NW 9.2 mph - N/A   Clear
2:15 AM 59.0 °F 53.6 °F 82% 29.79 in 10.0 mi NW 6.9 mph - N/A   Clear
2:35 AM 59.0 °F 53.6 °F 82% 29.79 in 10.0 mi NW 6.9 mph - N/A   Clear
2:55 AM 57.2 °F 51.8 °F 82% 29.79 in 10.0 mi NW 6.9 mph - N/A   Clear
3:15 AM 57.2 °F 51.8 °F 82% 29.78 in 10.0 mi NW 5.8 mph - N/A   Clear
3:35 AM 57.2 °F 51.8 °F 82% 29.79 in 10.0 mi NW 6.9 mph - N/A   Clear
3:55 AM 55.4 °F 51.8 °F 88% 29.78 in 10.0 mi NW 8.1 mph - N/A   Clear
4:15 AM 55.4 °F 51.8 °F 88% 29.78 in 10.0 mi NW 6.9 mph - N/A   Clear
4:35 AM 55.4 °F 51.8 °F 88% 29.77 in 10.0 mi NW 8.1 mph - N/A   Clear
4:55 AM 55.4 °F 51.8 °F 88% 29.78 in 10.0 mi WNW 8.1 mph - N/A   Clear
5:15 AM 55.4 °F 51.8 °F 88% 29.77 in 10.0 mi WNW 5.8 mph - N/A   Clear
5:35 AM 55.4 °F 51.8 °F 88% 29.77 in 10.0 mi WNW 6.9 mph - N/A   Clear
5:55 AM 53.6 °F 51.8 °F 94% 29.77 in 10.0 mi WNW 6.9 mph - N/A   Clear
6:15 AM 53.6 °F 51.8 °F 94% 29.77 in 10.0 mi WNW 6.9 mph - N/A   Clear
6:35 AM 53.6 °F 50.0 °F 88% 29.77 in 10.0 mi WNW 8.1 mph - N/A   Clear
6:55 AM 53.6 °F 50.0 °F 88% 29.77 in 10.0 mi WNW 9.2 mph - N/A   Clear
7:15 AM 53.6 °F 50.0 °F 88% 29.78 in 10.0 mi WNW 9.2 mph - N/A   Clear
7:35 AM 53.6 °F 50.0 °F 88% 29.79 in 10.0 mi NW 8.1 mph - N/A   Clear
7:55 AM 53.6 °F 50.0 °F 88% 29.80 in 10.0 mi WNW 6.9 mph - N/A   Clear
8:15 AM 53.6 °F 50.0 °F 88% 29.80 in 10.0 mi NW 8.1 mph - N/A   Clear
8:35 AM 53.6 °F 51.8 °F 94% 29.81 in 10.0 mi WNW 9.2 mph - N/A   Mostly Cloudy
8:55 AM 55.4 °F 51.8 °F 88% 29.82 in 10.0 mi NW 12.7 mph - N/A   Overcast
9:15 AM 55.4 °F 51.8 °F 88% 29.83 in 10.0 mi NW 15.0 mph 18.4 mph N/A   Overcast
9:35 AM 55.4 °F 51.8 °F 88% 29.83 in 10.0 mi WNW 10.4 mph 17.3 mph N/A   Overcast
9:55 AM 55.4 °F 51.8 °F 88% 29.83 in 10.0 mi NW 10.4 mph 19.6 mph N/A   Overcast
10:35 AM 57.2 °F 51.8 °F 82% 29.84 in 10.0 mi WNW 9.2 mph - N/A   Overcast
10:55 AM 57.2 °F 51.8 °F 82% 29.83 in 10.0 mi WNW 10.4 mph - N/A   Overcast
11:15 AM 59.0 °F 50.0 °F 72% 29.83 in 10.0 mi WNW 10.4 mph 16.1 mph N/A   Overcast
11:35 AM 59.0 °F 51.8 °F 77% 29.82 in 10.0 mi WNW 10.4 mph - N/A   Overcast
11:55 AM 60.8 °F 51.8 °F 72% 29.82 in 10.0 mi NW 10.4 mph 18.4 mph N/A   Overcast
12:15 PM 60.8 °F 50.0 °F 68% 29.81 in 10.0 mi WNW 10.4 mph 18.4 mph N/A   Overcast
12:35 PM 60.8 °F 50.0 °F 68% 29.81 in 10.0 mi WNW 12.7 mph 16.1 mph N/A   Overcast
1:15 PM 60.8 °F 50.0 °F 68% 29.80 in 10.0 mi West 13.8 mph 19.6 mph N/A   Overcast
1:35 PM 60.8 °F 50.0 °F 68% 29.79 in 10.0 mi West 12.7 mph 18.4 mph N/A   Overcast
1:55 PM 60.8 °F 50.0 °F 68% 29.78 in 10.0 mi WNW 9.2 mph 17.3 mph N/A   Overcast
2:15 PM 60.8 °F 50.0 °F 68% 29.78 in 10.0 mi WNW 11.5 mph 19.6 mph N/A   Overcast
2:35 PM 60.8 °F 50.0 °F 68% 29.77 in 10.0 mi WNW 11.5 mph 18.4 mph N/A   Overcast
2:55 PM 62.6 °F 50.0 °F 63% 29.77 in 10.0 mi WNW 11.5 mph 16.1 mph N/A   Overcast
3:15 PM 60.8 °F 50.0 °F 68% 29.77 in 10.0 mi NW 12.7 mph 19.6 mph N/A   Overcast
3:35 PM 60.8 °F 50.0 °F 68% 29.77 in 10.0 mi West 12.7 mph 19.6 mph N/A   Overcast
3:55 PM 60.8 °F 50.0 °F 68% 29.78 in 10.0 mi WNW 12.7 mph - N/A   Overcast
4:15 PM 60.8 °F 50.0 °F 68% 29.78 in 10.0 mi WNW 10.4 mph - N/A   Overcast
4:35 PM 60.8 °F 50.0 °F 68% 29.78 in 10.0 mi WNW 15.0 mph 20.7 mph N/A   Overcast
4:55 PM 60.8 °F 50.0 °F 68% 29.78 in 10.0 mi NW 10.4 mph 17.3 mph N/A   Overcast
5:15 PM 60.8 °F 50.0 °F 68% 29.78 in 10.0 mi WNW 13.8 mph 21.9 mph N/A   Overcast
5:35 PM 60.8 °F 50.0 °F 68% 29.78 in 10.0 mi WNW 15.0 mph 20.7 mph N/A   Overcast
5:55 PM 60.8 °F 48.2 °F 63% 29.78 in 10.0 mi NW 16.1 mph 23.0 mph N/A   Overcast
6:15 PM 60.8 °F 48.2 °F 63% 29.79 in 10.0 mi NW 15.0 mph 20.7 mph N/A   Overcast
6:35 PM 60.8 °F 48.2 °F 63% 29.80 in 10.0 mi WNW 11.5 mph 17.3 mph N/A   Overcast
6:55 PM 59.0 °F 46.4 °F 63% 29.80 in 10.0 mi NW 10.4 mph 20.7 mph N/A   Overcast
7:15 PM 59.0 °F 48.2 °F 67% 29.82 in 10.0 mi WNW 9.2 mph - N/A   Overcast
7:35 PM 59.0 °F 46.4 °F 63% 29.82 in 10.0 mi NW 13.8 mph 23.0 mph N/A   Overcast
7:55 PM 59.0 °F 46.4 °F 63% 29.83 in 10.0 mi NW 11.5 mph 17.3 mph N/A   Overcast
8:15 PM 59.0 °F 46.4 °F 63% 29.83 in 10.0 mi NW 12.7 mph 25.3 mph N/A   Overcast
8:35 PM 59.0 °F 44.6 °F 59% 29.83 in 10.0 mi NW 11.5 mph 21.9 mph N/A   Overcast
8:55 PM 59.0 °F 44.6 °F 59% 29.84 in 10.0 mi NW 9.2 mph - N/A   Overcast
9:15 PM 59.0 °F 44.6 °F 59% 29.85 in 10.0 mi NW 15.0 mph 21.9 mph N/A   Overcast
9:55 PM 57.2 °F 42.8 °F 59% 29.86 in 10.0 mi NW 16.1 mph 26.5 mph N/A   Scattered Clouds
10:15 PM 57.2 °F 42.8 °F 59% 29.86 in 10.0 mi NW 12.7 mph 23.0 mph N/A   Scattered Clouds
10:35 PM 55.4 °F 42.8 °F 63% 29.87 in 10.0 mi NW 9.2 mph 18.4 mph N/A   Clear
10:55 PM 55.4 °F 42.8 °F 63% 29.87 in 10.0 mi NW 6.9 mph - N/A   Clear
11:15 PM 55.4 °F 42.8 °F 63% 29.87 in 10.0 mi NW 10.4 mph 18.4 mph N/A   Scattered Clouds
11:35 PM 55.4 °F 42.8 °F 63% 29.87 in 10.0 mi NW 8.1 mph - N/A   Clear
11:55 PM 53.6 °F 41.0 °F 62% 29.87 in 10.0 mi NW 10.4 mph 19.6 mph N/A   Clear